﻿測定場所 (Monitoring sites),日付 (Measurement date),時間 (Measurement time),線量率 最大値 (max) μGy/h,線量率 最小値 (min) μGy/h,線量率 平均値 (average) μGy/h,
江東 (Koto),2012-09-23,23:01～24:00,0.0464,0.0413,0.0430,
江東 (Koto),2012-09-23,22:01～23:00,0.0450,0.0405,0.0428,
江東 (Koto),2012-09-23,21:01～22:00,0.0464,0.0408,0.0428,
江東 (Koto),2012-09-23,20:01～21:00,0.0469,0.0408,0.0434,
江東 (Koto),2012-09-23,19:01～20:00,0.0472,0.0410,0.0439,
江東 (Koto),2012-09-23,18:01～19:00,0.0479,0.0414,0.0451,
江東 (Koto),2012-09-23,17:01～18:00,0.0506,0.0431,0.0472,
江東 (Koto),2012-09-23,16:01～17:00,0.0507,0.0438,0.0472,
江東 (Koto),2012-09-23,15:01～16:00,0.0512,0.0446,0.0477,
江東 (Koto),2012-09-23,14:01～15:00,0.0518,0.0450,0.0483,
江東 (Koto),2012-09-23,13:01～14:00,0.0536,0.0481,0.0508,
江東 (Koto),2012-09-23,12:01～13:00,0.0585,0.0502,0.0541,
江東 (Koto),2012-09-23,11:01～12:00,0.0584,0.0478,0.0527,
江東 (Koto),2012-09-23,10:01～11:00,0.0530,0.0424,0.0473,
江東 (Koto),2012-09-23,09:01～10:00,0.0501,0.0444,0.0471,
江東 (Koto),2012-09-23,08:01～09:00,0.0509,0.0451,0.0480,
江東 (Koto),2012-09-23,07:01～08:00,0.0517,0.0453,0.0484,
江東 (Koto),2012-09-23,06:01～07:00,0.0529,0.0466,0.0504,
江東 (Koto),2012-09-23,05:01～06:00,0.0510,0.0437,0.0471,
江東 (Koto),2012-09-23,04:01～05:00,0.0478,0.0414,0.0443,
江東 (Koto),2012-09-23,03:01～04:00,0.0483,0.0419,0.0450,
江東 (Koto),2012-09-23,02:01～03:00,0.0500,0.0448,0.0468,
江東 (Koto),2012-09-23,01:01～02:00,0.0498,0.0434,0.0472,
江東 (Koto),2012-09-23,00:01～01:00,0.0544,0.0460,0.0499,
江東 (Koto),2012-09-22,23:01～24:00,0.0541,0.0439,0.0484,
江東 (Koto),2012-09-22,22:01～23:00,0.0476,0.0411,0.0437,
江東 (Koto),2012-09-22,21:01～22:00,0.0464,0.0413,0.0435,
江東 (Koto),2012-09-22,20:01～21:00,0.0460,0.0405,0.0435,
江東 (Koto),2012-09-22,19:01～20:00,0.0459,0.0404,0.0435,
江東 (Koto),2012-09-22,18:01～19:00,0.0454,0.0408,0.0434,
江東 (Koto),2012-09-22,17:01～18:00,0.0483,0.0413,0.0438,
江東 (Koto),2012-09-22,16:01～17:00,0.0465,0.0415,0.0437,
江東 (Koto),2012-09-22,15:01～16:00,0.0464,0.0411,0.0434,
江東 (Koto),2012-09-22,14:01～15:00,0.0472,0.0413,0.0436,
江東 (Koto),2012-09-22,13:01～14:00,0.0462,0.0405,0.0436,
江東 (Koto),2012-09-22,12:01～13:00,0.0464,0.0404,0.0435,
江東 (Koto),2012-09-22,11:01～12:00,0.0463,0.0416,0.0442,
江東 (Koto),2012-09-22,10:01～11:00,0.0460,0.0415,0.0435,
江東 (Koto),2012-09-22,09:01～10:00,0.0471,0.0412,0.0437,
江東 (Koto),2012-09-22,08:01～09:00,0.0453,0.0400,0.0432,
江東 (Koto),2012-09-22,07:01～08:00,0.0461,0.0410,0.0436,
江東 (Koto),2012-09-22,06:01～07:00,0.0463,0.0413,0.0436,
江東 (Koto),2012-09-22,05:01～06:00,0.0467,0.0402,0.0434,
江東 (Koto),2012-09-22,04:01～05:00,0.0450,0.0410,0.0433,
江東 (Koto),2012-09-22,03:01～04:00,0.0475,0.0399,0.0433,
江東 (Koto),2012-09-22,02:01～03:00,0.0478,0.0407,0.0436,
江東 (Koto),2012-09-22,01:01～02:00,0.0476,0.0407,0.0433,
江東 (Koto),2012-09-22,00:01～01:00,0.0458,0.0405,0.0435,
江東 (Koto),2012-09-21,23:01～24:00,0.0464,0.0407,0.0434,
江東 (Koto),2012-09-21,22:01～23:00,0.0460,0.0401,0.0435,
江東 (Koto),2012-09-21,21:01～22:00,0.0461,0.0409,0.0434,
江東 (Koto),2012-09-21,20:01～21:00,0.0465,0.0406,0.0434,
江東 (Koto),2012-09-21,19:01～20:00,0.0460,0.0401,0.0432,
江東 (Koto),2012-09-21,18:01～19:00,0.0459,0.0411,0.0433,
江東 (Koto),2012-09-21,17:01～18:00,0.0456,0.0408,0.0435,
江東 (Koto),2012-09-21,16:01～17:00,0.0464,0.0407,0.0437,
江東 (Koto),2012-09-21,15:01～16:00,0.0464,0.0404,0.0435,
江東 (Koto),2012-09-21,14:01～15:00,0.0461,0.0414,0.0436,
江東 (Koto),2012-09-21,13:01～14:00,0.0462,0.0404,0.0435,
江東 (Koto),2012-09-21,12:01～13:00,0.0461,0.0418,0.0438,
江東 (Koto),2012-09-21,11:01～12:00,0.0464,0.0413,0.0436,
江東 (Koto),2012-09-21,10:01～11:00,0.0460,0.0405,0.0434,
江東 (Koto),2012-09-21,09:01～10:00,0.0461,0.0404,0.0439,
江東 (Koto),2012-09-21,08:01～09:00,0.0471,0.0406,0.0445,
江東 (Koto),2012-09-21,07:01～08:00,0.0469,0.0410,0.0441,
江東 (Koto),2012-09-21,06:01～07:00,0.0465,0.0404,0.0438,
江東 (Koto),2012-09-21,05:01～06:00,0.0473,0.0416,0.0437,
江東 (Koto),2012-09-21,04:01～05:00,0.0464,0.0413,0.0435,
江東 (Koto),2012-09-21,03:01～04:00,0.0467,0.0405,0.0432,
江東 (Koto),2012-09-21,02:01～03:00,0.0470,0.0407,0.0434,
江東 (Koto),2012-09-21,01:01～02:00,0.0457,0.0403,0.0433,
江東 (Koto),2012-09-21,00:01～01:00,0.0463,0.0392,0.0431,
江東 (Koto),2012-09-20,23:01～24:00,0.0454,0.0397,0.0430,
江東 (Koto),2012-09-20,22:01～23:00,0.0464,0.0405,0.0434,
江東 (Koto),2012-09-20,21:01～22:00,0.0462,0.0401,0.0433,
江東 (Koto),2012-09-20,20:01～21:00,0.0478,0.0408,0.0433,
江東 (Koto),2012-09-20,19:01～20:00,0.0459,0.0411,0.0433,
江東 (Koto),2012-09-20,18:01～19:00,0.0465,0.0398,0.0434,
江東 (Koto),2012-09-20,17:01～18:00,0.0458,0.0403,0.0429,
江東 (Koto),2012-09-20,16:01～17:00,0.0461,0.0404,0.0433,
江東 (Koto),2012-09-20,15:01～16:00,0.0469,0.0408,0.0434,
江東 (Koto),2012-09-20,14:01～15:00,0.0459,0.0405,0.0432,
江東 (Koto),2012-09-20,13:01～14:00,0.0456,0.0404,0.0429,
江東 (Koto),2012-09-20,12:01～13:00,0.0464,0.0395,0.0431,
江東 (Koto),2012-09-20,11:01～12:00,0.0450,0.0401,0.0429,
江東 (Koto),2012-09-20,10:01～11:00,0.0467,0.0408,0.0431,
江東 (Koto),2012-09-20,09:01～10:00,0.0451,0.0403,0.0429,
江東 (Koto),2012-09-20,08:01～09:00,0.0455,0.0394,0.0428,
江東 (Koto),2012-09-20,07:01～08:00,0.0453,0.0411,0.0430,
江東 (Koto),2012-09-20,06:01～07:00,0.0463,0.0403,0.0431,
江東 (Koto),2012-09-20,05:01～06:00,0.0465,0.0406,0.0431,
江東 (Koto),2012-09-20,04:01～05:00,0.0460,0.0405,0.0429,
江東 (Koto),2012-09-20,03:01～04:00,0.0451,0.0400,0.0429,
江東 (Koto),2012-09-20,02:01～03:00,0.0451,0.0402,0.0429,
江東 (Koto),2012-09-20,01:01～02:00,0.0463,0.0404,0.0428,
江東 (Koto),2012-09-20,00:01～01:00,0.0451,0.0401,0.0427,
江東 (Koto),2012-09-19,23:01～24:00,0.0459,0.0400,0.0425,
江東 (Koto),2012-09-19,22:01～23:00,0.0462,0.0408,0.0428,
江東 (Koto),2012-09-19,21:01～22:00,0.0454,0.0400,0.0430,
江東 (Koto),2012-09-19,20:01～21:00,0.0462,0.0404,0.0429,
江東 (Koto),2012-09-19,19:01～20:00,0.0448,0.0406,0.0428,
江東 (Koto),2012-09-19,18:01～19:00,0.0459,0.0410,0.0429,
江東 (Koto),2012-09-19,17:01～18:00,0.0449,0.0401,0.0428,
江東 (Koto),2012-09-19,16:01～17:00,0.0451,0.0399,0.0426,
江東 (Koto),2012-09-19,15:01～16:00,0.0462,0.0392,0.0426,
江東 (Koto),2012-09-19,14:01～15:00,0.0447,0.0403,0.0427,
江東 (Koto),2012-09-19,13:01～14:00,0.0450,0.0398,0.0425,
江東 (Koto),2012-09-19,12:01～13:00,0.0457,0.0400,0.0426,
江東 (Koto),2012-09-19,11:01～12:00,0.0447,0.0399,0.0424,
江東 (Koto),2012-09-19,10:01～11:00,0.0459,0.0408,0.0429,
江東 (Koto),2012-09-19,09:01～10:00,0.0455,0.0401,0.0423,
江東 (Koto),2012-09-19,08:01～09:00,0.0459,0.0402,0.0426,
江東 (Koto),2012-09-19,07:01～08:00,0.0455,0.0402,0.0429,
江東 (Koto),2012-09-19,06:01～07:00,0.0465,0.0404,0.0431,
江東 (Koto),2012-09-19,05:01～06:00,0.0473,0.0409,0.0433,
江東 (Koto),2012-09-19,04:01～05:00,0.0465,0.0408,0.0433,
江東 (Koto),2012-09-19,03:01～04:00,0.0459,0.0403,0.0430,
江東 (Koto),2012-09-19,02:01～03:00,0.0455,0.0407,0.0431,
江東 (Koto),2012-09-19,01:01～02:00,0.0458,0.0404,0.0430,
江東 (Koto),2012-09-19,00:01～01:00,0.0457,0.0403,0.0433,
江東 (Koto),2012-09-18,23:01～24:00,0.0469,0.0411,0.0438,
江東 (Koto),2012-09-18,22:01～23:00,0.0467,0.0404,0.0434,
江東 (Koto),2012-09-18,21:01～22:00,0.0460,0.0413,0.0436,
江東 (Koto),2012-09-18,20:01～21:00,0.0458,0.0410,0.0434,
江東 (Koto),2012-09-18,19:01～20:00,0.0457,0.0402,0.0437,
江東 (Koto),2012-09-18,18:01～19:00,0.0457,0.0407,0.0435,
江東 (Koto),2012-09-18,17:01～18:00,0.0455,0.0406,0.0432,
江東 (Koto),2012-09-18,16:01～17:00,0.0473,0.0409,0.0437,
江東 (Koto),2012-09-18,15:01～16:00,0.0459,0.0400,0.0435,
江東 (Koto),2012-09-18,14:01～15:00,0.0458,0.0411,0.0434,
江東 (Koto),2012-09-18,13:01～14:00,0.0476,0.0414,0.0436,
江東 (Koto),2012-09-18,12:01～13:00,0.0470,0.0402,0.0437,
江東 (Koto),2012-09-18,11:01～12:00,0.0460,0.0412,0.0435,
江東 (Koto),2012-09-18,10:01～11:00,0.0465,0.0410,0.0436,
江東 (Koto),2012-09-18,09:01～10:00,0.0457,0.0399,0.0432,
江東 (Koto),2012-09-18,08:01～09:00,0.0451,0.0407,0.0433,
江東 (Koto),2012-09-18,07:01～08:00,0.0458,0.0405,0.0433,
江東 (Koto),2012-09-18,06:01～07:00,0.0465,0.0401,0.0434,
江東 (Koto),2012-09-18,05:01～06:00,0.0469,0.0407,0.0436,
江東 (Koto),2012-09-18,04:01～05:00,0.0465,0.0414,0.0437,
江東 (Koto),2012-09-18,03:01～04:00,0.0462,0.0418,0.0438,
江東 (Koto),2012-09-18,02:01～03:00,0.0466,0.0407,0.0437,
江東 (Koto),2012-09-18,01:01～02:00,0.0457,0.0402,0.0435,
江東 (Koto),2012-09-18,00:01～01:00,0.0472,0.0413,0.0439,
江東 (Koto),2012-09-17,23:01～24:00,0.0462,0.0412,0.0437,
江東 (Koto),2012-09-17,22:01～23:00,0.0476,0.0409,0.0438,
江東 (Koto),2012-09-17,21:01～22:00,0.0476,0.0406,0.0436,
江東 (Koto),2012-09-17,20:01～21:00,0.0460,0.0409,0.0438,
江東 (Koto),2012-09-17,19:01～20:00,0.0475,0.0413,0.0440,
江東 (Koto),2012-09-17,18:01～19:00,0.0463,0.0415,0.0438,
江東 (Koto),2012-09-17,17:01～18:00,0.0478,0.0415,0.0437,
江東 (Koto),2012-09-17,16:01～17:00,0.0463,0.0408,0.0437,
江東 (Koto),2012-09-17,15:01～16:00,0.0469,0.0410,0.0439,
江東 (Koto),2012-09-17,14:01～15:00,0.0474,0.0408,0.0437,
江東 (Koto),2012-09-17,13:01～14:00,0.0461,0.0418,0.0436,
江東 (Koto),2012-09-17,12:01～13:00,0.0458,0.0410,0.0437,
江東 (Koto),2012-09-17,11:01～12:00,0.0468,0.0413,0.0438,
江東 (Koto),2012-09-17,10:01～11:00,0.0476,0.0412,0.0437,
江東 (Koto),2012-09-17,09:01～10:00,0.0460,0.0413,0.0438,
江東 (Koto),2012-09-17,08:01～09:00,0.0470,0.0414,0.0437,
江東 (Koto),2012-09-17,07:01～08:00,0.0467,0.0410,0.0436,
江東 (Koto),2012-09-17,06:01～07:00,0.0467,0.0416,0.0440,
江東 (Koto),2012-09-17,05:01～06:00,0.0460,0.0407,0.0436,
江東 (Koto),2012-09-17,04:01～05:00,0.0471,0.0414,0.0436,
江東 (Koto),2012-09-17,03:01～04:00,0.0472,0.0412,0.0439,
江東 (Koto),2012-09-17,02:01～03:00,0.0474,0.0410,0.0437,
江東 (Koto),2012-09-17,01:01～02:00,0.0470,0.0412,0.0438,
江東 (Koto),2012-09-17,00:01～01:00,0.0464,0.0412,0.0436,
